Location: Donald C. Martin Observatory
(38.3885°N, 82.3916°W)
Time: 23:59:31
(UTC-05:00)

Cosmos 1484 Rocket - Visible Passes

Search period start: 23 January 2017 00:00
Search period end: 02 February 2017 00:00
Orbit: 509 x 561 km, 97.3° (Epoch: 22 January)

Date Brightness Start Highest point End Pass type
(mag) Time Alt. Az. Time Alt. Az. Time Alt. Az.
23 Jan 4.2 06:52:39 10° NNE 06:56:28 43° E 07:00:14 10° S visible
23 Jan 4.9 19:08:22 10° SSW 19:11:50 29° W 19:15:22 10° NW visible
24 Jan 4.8 06:44:02 10° NNE 06:47:41 33° E 06:51:15 10° SSE visible
24 Jan 4.4 18:59:22 10° SSW 19:03:02 37° W 19:06:47 10° NNW visible
25 Jan 5.3 06:35:29 10° NE 06:38:52 26° E 06:42:12 10° SSE visible
25 Jan 3.9 18:50:25 10° S 18:54:15 49° W 18:58:09 10° NNW visible
26 Jan 5.7 06:27:01 10° NE 06:30:03 21° E 06:33:03 10° SE visible
26 Jan 3.3 18:41:33 10° S 18:45:28 64° W 18:49:28 10° NNW visible
27 Jan 6.1 06:18:39 10° NE 06:21:13 16° E 06:23:45 10° SE visible
27 Jan 2.9 18:32:44 10° S 18:36:42 83° W 18:40:44 10° NNW visible
28 Jan 6.3 06:10:31 10° ENE 06:12:23 13° E 06:14:12 10° ESE visible
28 Jan 2.8 18:23:59 10° SSE 18:27:56 77° ENE 18:31:58 10° N visible
29 Jan 2.9 18:15:17 10° SSE 18:19:11 59° ENE 18:23:10 10° N visible
30 Jan 6.4 19:43:35 10° WSW 19:45:09 12° W 19:46:43 10° WNW visible
31 Jan 6.1 19:33:55 10° SW 19:36:18 15° W 19:38:42 10° NW visible
01 Feb 5.8 19:24:34 10° SW 19:27:28 19° W 19:30:24 10° NW visible
